Regional Weather Roundup
Issued by NWS

Home | Current Version | Previous Version | Graphics & Text | Print | Product List | Glossary On
Versions: 1 2 3 4 5 6 7 8 9 10 11 12 13 14 15 16 17 18 19 20 21 22 23 24 25 26 27 28 29 30 31 32 33 34 35 36 37 38 39 40 41 42 43 44 45 46 47 48 49 50
000
ASUS43 KDTX 201410
RWRMI
MICHIGAN HOURLY REGIONAL WEATHER ROUNDUP
NATIONAL WEATHER SERVICE DETROIT/PONTIAC MI
1000 AM EDT WED SEP 20 2017

NOTE: "FAIR" INDICATES FEW OR NO CLOUDS BELOW 12,000 FEET WITH NO
SIGNIFICANT WEATHER AND/OR OBSTRUCTION TO VISIBILITY.

MIZ047>049-052>055-059>063-066>070-074>076-081>083-201500-
SOUTHEAST LOWER MICHIGAN

CITY           SKY/WX    TMP DP  RH WIND       PRES   REMARKS
ADRIAN         CLOUDY    69  66  90 S5        30.03S
ALMA           CLOUDY    69  66  91 NE3       29.99F FOG
ANN ARBOR      CLOUDY    71  68  90 VRB5      30.01S
BAD AXE        CLOUDY    68  67  97 S5        30.04S FOG
CARO           CLOUDY    66  65  95 S3        30.02R FOG
DETROIT CITY   PTSUNNY   71  68  90 S3        30.02S FOG
DETROIT        CLOUDY    68  68 100 CALM      30.03R FOG
FLINT          CLOUDY    68  67  96 SE7       30.01F FOG
GROSSE ILE     PTSUNNY   71  67  89 CALM      30.02R FOG
HILLSDALE      CLOUDY    68  64  88 S3        30.01F
HOWELL         CLOUDY    70  66  89 S5        30.01F FOG

CITY           SKY/WX    TMP DP  RH WIND       PRES   REMARKS
JACKSON        MOSUNNY   70  64  81 SE5       30.01F
LAMBERTVILLE   FOG       68  66  92 CALM      30.02S VSB 1/2
LANSING        CLOUDY    70  65  84 S3        30.01S HAZE
LAPEER         CLOUDY    67  67  98 CALM      30.03S FOG
MASON          PTSUNNY   71  66  83 SE6       30.01S
MONROE         CLOUDY    69  67  93 W3        30.02R FOG
MT. CLEMENS    MOSUNNY   70  70 100 SE2       30.01S FOG
PONTIAC        FOG       67  67 100 SW3       30.02R VSB 1
PORT HOPE        N/A     69  66  90 SE9       30.02R
PORT HURON     CLOUDY    70  68  94 S3        30.03S FOG
TRI CITIES     CLOUDY    70  69  97 SE6       30.01S FOG
MIDLAND        CLOUDY    70  68  92 E3        29.99F FOG
TROY           CLOUDY    68  68  99 S3        30.04S FOG
SAGINAW HB     PTSUNNY   70  68  94 SE3       30.00F FOG
$$
MIZ043>046-050>051-056>058-064>065-071>073-077>080-201500-
SOUTHWEST LOWER MICHIGAN

CITY           SKY/WX    TMP DP  RH WIND       PRES   REMARKS
BATTLE CREEK   MOSUNNY   72  66  81 SW5       30.01S
BENTON HARBOR  CLOUDY    67  65  93 SE8       29.97F FOG
BIG RAPIDS     CLOUDY    66  64  96 S7        29.99S FOG
COLDWATER      CLOUDY    68  68 100 S3        30.01S FOG
FREMONT        CLOUDY    68  67  96 S7        29.98S FOG
HOLLAND        PTSUNNY   70  64  81 SE7       29.98S
GRAND RAPIDS   PTSUNNY   70  65  84 SE5       29.99S
IONIA          CLOUDY    69  66  91 SE3       30.00R FOG
KALAMAZOO      CLOUDY    68  63  84 S7        30.01R HAZE
LUDINGTON      CLOUDY    68  64  89 SE6       29.95S FOG
MARSHALL       MOSUNNY   70  66  88 S5        30.00S
MOUNT PLEASANT PTSUNNY   71  68  89 SE5       29.99S FOG
MUSKEGON       CLOUDY    70  65  84 SE12      29.97S HAZE
SOUTH HAVEN    CLOUDY    68  67  95 SE6       29.98S FOG
$$
MIZ016>042-201500-
NORTHERN LOWER MICHIGAN

CITY           SKY/WX    TMP DP  RH WIND       PRES   REMARKS
ALPENA         CLOUDY    68  68 100 SE7       30.02F
BEAVER ISLAND  CLOUDY    65  64  93 SE5       30.00R
BELLAIRE       PTSUNNY   69  64  84 CALM      29.98F
CADILLAC       CLOUDY    67  64  89 SE7       30.00S FOG
CHARLEVOIX     CLOUDY    66  65  97 E5        30.02S
FRANKFORT      PTSUNNY   68  66  93 SE6       29.95S
GAYLORD        CLOUDY    64  62  93 SE8       30.02S
GRAYLING       CLOUDY    65  63  91 SE3       30.02R FOG
HARBOR SPRINGS CLOUDY    65  64  95 E8        29.99F
HOUGHTON LAKE  CLOUDY    65  64  97 SE7       30.01F FOG
MANISTEE       CLOUDY    68  64  88 VRB5      29.96R
OSCODA         CLOUDY    69  68  96 SE5       30.01F FOG
PELLSTON       CLOUDY    66  63  90 SE8       30.01S
ROGERS CITY    CLOUDY    66  65  98 CALM      30.02S FOG
TRAVERSE CITY  CLOUDY    71  64  78 VRB7      29.97R
$$
MIZ007>008-015-201500-
EASTERN UPPER MICHIGAN

CITY           SKY/WX    TMP DP  RH WIND       PRES   REMARKS
KINROSS        CLOUDY    65  64  97 SE10      30.01F FOG
MACKINAC ISLAN CLOUDY    66  66 100 SE5       30.01S FOG
NEWBERRY       CLOUDY    64  63  97 SE8       29.99R
S. S. MARIE    CLOUDY    66  63  90 E7        30.01S
MUNISING         N/A     64  63  96 S10G22    29.92F
$$
MIZ004>006-011>014-085-201500-
CENTRAL UPPER MICHIGAN

CITY           SKY/WX    TMP DP  RH WIND       PRES   REMARKS
MANISTIQUE     CLOUDY    64  58  81 SE7       29.97S HAZE
MENOMINEE      CLOUDY    66  64  93 S13       29.92S FOG
SAWYER-GWINN   CLOUDY    63  61  94 S14G20    29.91F FOG
$$
MIZ001>003-009>011-084-201500-
WESTERN UPPER MICHIGAN

CITY           SKY/WX    TMP DP  RH WIND       PRES   REMARKS
IRON MOUNTAIN  CLOUDY    62  60  93 S9        29.92R FOG
HOUGHTON       CLOUDY    60  57  89 E9        29.82F
COPPER HARBOR    N/A     63  60  90 VRB6      29.89R
IRONWOOD       CLOUDY    64  60  87 SE12G22   29.74F
$$

ABBREVIATIONS USED IN REMARKS
   TC - TEMPERATURE IN CELSIUS
  WCI - WIND CHILL INDEX
   HX - HEAT INDEX
  VSB - VISIBILITY





USA.gov is the U.S. government's official web portal to all federal, state and local government web resources and services.